Flag for Germany Weather past 2 weeks in Pulheim, North Rhine-Westphalia, Germany

Now
48 °F

Partly sunny.


Feels Like: 43 °F
Forecast: 35 / 44 °F
Wind: 14 mph from South

Location: Noervenich

Current Time: Mar 3, 2015 at 2:32:48 PM

Latest Report: Mar 3, 2015 at 1:20 PM


Visibility: N/A

Pressure: 30.01 "Hg

Humidity: 54%

Dew point: 32 °F

Location of PulheimLocation

Historic Weather in Pulheim — Graph

°F

Pulheim temperature yesterday

Maximum temperature yesterday: 48 °F (at 12:20 AM)
Minimum temperature yesterday: 36 °F (at 4:20 PM)
Average temperature yesterday: 42 °F

Past Weeks' High & Low Weather Summary

 TemperatureHumidityPressure
High52 °F (Mar 1, 11:20 AM)100% (Feb 17, 6:20 AM)30.74 "Hg (Feb 17, 6:20 AM)
Low27 °F (Feb 19, 7:20 AM)50% (Feb 28, 1:20 PM)29.36 "Hg (Feb 21, 4:20 AM)
Average40 °F80%29.96 "Hg
* Reported Feb 16 1:20 PM — Mar 3 1:20 PM, Pulheim, Weather by CustomWeather, © 2015

Note: Actual official high and low records may vary slightly from our data, if they occured in-between our weather recording intervals... More about our weather records

Advertising

Pulheim weather history for previous 24 hours

 ConditionsComfort  
Time TempWeatherWind HumidityBarometerVisibility
1:20 PM
Tue, Mar 3
48 °FPartly sunny.14 mph54%30.01 "HgN/A
12:45 PM46 °FBroken clouds.9 mph57%30.01 "HgN/A
12:20 PM46 °FBroken clouds.10 mph57%30.04 "HgN/A
11:20 AM45 °FPartly sunny.8 mph61%30.07 "HgN/A
10:20 AM45 °FBroken clouds.7 mph57%30.07 "HgN/A
9:20 AM43 °FPartly sunny.6 mph66%30.07 "HgN/A
8:20 AM39 °FPartly sunny.6 mph70%30.07 "HgN/A
7:20 AM37 °FPassing clouds.8 mph75%30.07 "HgN/A
6:20 AM39 °FPassing clouds.13 mph75%30.07 "HgN/A
5:20 AM39 °FPassing clouds.10 mph75%30.04 "HgN/A
4:20 AM39 °FPassing clouds.10 mph75%30.04 "HgN/A
3:20 AM37 °FPassing clouds.12 mph81%30.04 "HgN/A
2:20 AM37 °FPassing clouds.9 mph75%30.04 "HgN/A
1:20 AM37 °FChilly.12 mph75%30.04 "HgN/A
12:20 AM37 °FPassing clouds.12 mph75%30.01 "HgN/A
11:20 PM
Mon, Mar 2
39 °FPassing clouds.15 mph70%30.01 "HgN/A
10:20 PM39 °FPassing clouds.14 mph70%29.95 "HgN/A
9:20 PM37 °FPassing clouds.7 mph75%29.95 "HgN/A
8:20 PM37 °FPassing clouds.10 mph75%29.92 "HgN/A
7:20 PM39 °FPassing clouds.10 mph75%29.86 "HgN/A
6:20 PM37 °FSprinkles. Passing clouds.16 mph81%29.83 "HgN/A
5:20 PM39 °FPassing clouds.15 mph81%29.80 "HgN/A
4:20 PM36 °FThunderstorms. Partly sunny.20 mph93%29.77 "Hg5 mi
4:04 PM41 °FThunderstorms. Broken clouds.15 mph81%29.74 "Hg1 mi
3:56 PM41 °FThundershowers. Broken clouds.13 mph81%29.74 "HgN/A
3:20 PM41 °FSprinkles. Broken clouds.21 mph81%29.74 "Hg5 mi
2:20 PM48 °FPartly sunny.17 mph50%29.71 "HgN/A
Weather by CustomWeather, © 2015

See weather overviewHow to use our weather pages